Location: Aranbee
(34.0885°N, 118.2342°W)
Time: 23:53:18
(UTC+00:00)

A-11 Canister half - Pass Details

Date: 31 July 2021
Orbit: 1515 x 1685 km, 47.2° (Epoch: 22 September)

Event Time Altitude Azimuth Distance (km) Brightness Sun altitude
Rises 07:42:13 0° 305° (NW) 4,929 12.1 -37.6°
Reaches altitude 10° 07:45:23 10° 304° (NW) 3,946 11.5 -37.6°
Enters shadow 07:54:22 69° 269° (W) 1,774 9.1 -37.7°
